Temperature
28 29 29 29 29 29 29 29 28 26 25 25 23 21 20 19 19 18 18 17 17 16 16 16 16 16 16 16 16 16 16 16 17 16 16 15 15 15 15 15 15 15 15 15
29 29 29 29 29 29 29 28 28 25 24 24 23 22 21 20 19 18 18 18 17 17 17 16 16 16 16 16 16 16 16 16 16 16 15 15 15 15 15 15 15 15 15 15
29 29 29 29 29 29 29 29 28 26 24 24 24 23 22 22 20 19 18 18 18 17 17 17 16 16 16 16 16 16 16 16 15 15 15 15 15 15 14 14 14 14 15 15
29 29 28 29 29 29 28 29 28 26 25 26 25 24 23 22 22 21 20 19 18 18 17 17 17 16 16 16 16 15 15 15 15 15 14 14 14 14 14 14 13 14 14 14
28 28 28 28 28 28 28 28 28 27 27 26 25 25 23 23 22 22 21 20 19 18 18 17 17 16 16 16 15 15 14 14 14 14 14 13 14 14 14 13 13 13 13 13
28 28 28 28 28 28 27 27 27 27 27 25 26 25 23 23 23 22 22 20 19 18 18 17 17 16 16 15 15 14 14 13 13 13 13 13 13 13 13 13 13 13 13 13
28 28 28 28 29 28 28 27 26 26 26 25 25 25 23 22 22 22 22 20 19 18 18 17 17 16 15 15 14 14 13 13 12 12 12 12 12 12 12 12 13 12 13 13
27 27 28 28 27 27 27 27 26 25 25 25 25 24 22 22 21 21 20 20 19 18 18 17 17 16 15 15 14 13 13 12 12 12 12 11 11 12 12 12 12 12 12 12
27 27 27 27 27 27 27 27 28 27 26 25 25 23 21 21 21 21 20 20 19 18 17 17 16 15 15 14 13 13 12 12 11 11 11 11 11 11 11 11 11 11 11 11
27 26 27 27 28 26 27 27 27 26 24 24 25 24 23 22 22 22 21 20 19 18 17 17 16 15 14 13 13 12 12 11 11 10 10 11 10 10 10 10 10 10 10 10
27 26 27 27 26 26 26 26 26 26 25 24 24 24 23 22 21 21 20 19 18 17 16 16 15 14 13 13 12 12 11 11 10 10 9 9 9 9 9 9 9 9 9 10
26 27 26 26 25 26 26 25 25 25 24 24 24 24 22 22 21 20 19 18 17 16 15 15 14 13 13 12 11 11 10 10 10 9 8 8 8 8 8 9 9 8 8 9
26 26 25 25 25 26 25 25 25 25 24 24 24 24 21 21 20 19 19 18 16 15 15 14 13 12 12 11 10 10 9 9 9 8 8 8 7 7 7 7 8 8 8 8
25 26 25 25 25 25 25 24 24 25 25 24 23 23 23 22 21 20 18 17 16 15 14 13 12 11 11 10 9 9 9 8 8 8 7 7 7 7 7 7 7 7 7 7
26 26 25 25 25 25 25 24 24 24 23 23 23 23 23 22 20 18 17 16 15 14 13 12 12 11 10 10 9 9 8 8 7 7 7 7 7 6 6 6 6 6 6 7
25 25 25 25 25 25 24 24 23 23 23 23 23 23 22 20 19 18 17 16 15 14 13 12 11 10 10 9 9 8 8 7 7 7 7 6 6 6 6 6 6 6 6 6
26 25 24 25 25 24 24 24 23 23 23 22 22 22 22 20 19 17 16 15 14 13 12 11 11 10 9 9 8 8 7 7 7 6 6 6 6 6 6 6 5 5 5 5
24 24 24 25 24 23 24 24 24 23 23 23 22 22 21 19 17 16 15 14 13 12 11 11 10 10 9 9 8 7 7 7 7 6 6 6 6 5 5 5 5 5 5 5
24 24 25 25 25 25 24 23 23 22 22 23 22 21 20 19 17 18 15 13 12 11 11 10 10 9 9 8 8 7 7 7 6 6 6 6 5 5 5 5 5 5 5 5
23 23 24 24 23 23 24 23 22 22 22 22 21 20 19 18 18 18 15 13 12 11 10 9 9 9 9 8 7 7 7 6 6 6 6 6 5 5 5 5 5 5 5 5
24 24 24 24 24 25 24 22 21 22 22 21 20 19 18 17 17 15 13 12 11 10 10 9 9 9 8 8 7 7 6 6 6 6 6 5 5 5 5 5 5 5 5 5
25 25 24 24 23 24 23 22 22 22 20 19 18 18 17 16 15 14 13 12 11 10 10 9 9 9 8 7 7 7 6 6 6 6 6 6 6 6 5 5 5 5 5 5
25 25 25 25 25 23 22 22 22 20 20 19 18 17 16 15 14 14 12 11 11 10 9 9 9 8 8 7 7 6 6 6 6 6 6 6 6 6 5 5 5 5 5 5
25 22 23 23 25 23 22 21 20 19 19 18 17 16 15 15 14 13 12 11 10 10 9 9 8 8 8 7 7 6 6 6 6 6 6 6 6 6 6 6 5 5 5 5
25 23 23 23 24 23 22 21 20 19 18 17 16 15 14 14 13 12 11 11 10 9 9 8 8 8 7 7 7 6 6 6 6 6 6 6 6 6 6 6 6 5 5 5
25 24 23 24 24 23 23 21 20 19 18 17 16 15 14 13 13 12 11 10 9 9 8 8 8 7 7 7 7 6 6 6 6 6 6 7 7 6 6 6 6 6 5 5
Wind_Speed
4 5 1 2 2 3 1 2 3 7 5 7 10 10 8 6 6 6 6 7 7 7 7 6 6 6 6 6 6 7 8 9 8 8 9 9 9 8 7 7 8 7 6 6
6 2 4 3 1 3 3 3 5 7 6 5 10 10 8 6 6 6 6 7 7 7 7 6 5 5 5 6 6 6 8 9 9 8 8 7 8 8 6 6 7 8 8 8
4 3 3 3 3 5 5 4 2 6 8 8 10 8 7 7 6 6 5 5 5 4 4 4 3 3 4 5 6 7 8 8 9 9 8 9 8 7 7 8 7 8 8 7
3 1 4 5 4 6 4 1 2 9 10 6 9 4 8 7 6 5 5 4 3 2 1 2 3 4 5 6 7 8 8 9 9 9 9 10 9 9 9 8 7 8 8 7
2 3 5 4 3 5 3 2 3 9 8 5 7 4 8 8 6 6 5 4 3 2 2 3 5 7 8 9 10 10 10 10 10 10 10 10 11 10 9 9 8 8 7 6
2 1 3 3 2 1 3 3 5 8 9 7 3 5 7 6 4 4 5 5 4 4 5 6 8 9 10 11 11 11 11 12 12 12 11 11 12 12 12 11 11 9 7 5
2 3 2 3 3 4 4 7 6 6 7 3 4 4 5 5 2 1 3 4 5 6 7 9 10 12 13 13 13 13 13 13 13 14 13 13 13 13 13 13 12 11 10 8
2 2 5 6 4 4 3 6 6 7 6 1 5 2 6 4 1 2 4 5 6 8 9 11 12 13 14 14 14 14 14 15 15 15 14 14 14 14 13 13 13 13 12 11
5 3 4 5 5 4 2 3 5 7 6 6 2 5 6 4 2 3 5 6 7 9 11 13 13 14 14 14 14 15 15 16 16 16 16 15 15 14 15 16 15 15 12 12
5 3 2 1 2 6 4 2 4 6 6 7 3 3 3 4 3 4 6 7 9 10 13 14 14 14 14 15 15 16 16 17 17 17 16 15 16 16 16 16 16 16 16 15
5 3 1 2 4 5 2 2 4 4 5 7 7 3 5 3 4 6 7 8 10 13 15 15 14 14 16 17 17 17 18 18 18 18 17 17 17 17 17 16 17 16 16 16
3 4 1 3 4 3 4 4 4 5 5 5 8 3 7 2 5 7 9 10 12 14 15 15 16 16 17 18 18 19 19 19 18 18 18 18 18 18 18 18 17 17 16 17
2 2 3 6 6 3 2 3 3 3 4 5 8 6 4 3 6 8 10 13 14 15 15 15 16 16 17 18 18 19 19 19 19 18 18 18 18 18 18 18 18 17 17 17
3 2 5 5 4 2 1 0 2 5 6 8 8 12 11 10 10 10 12 14 15 15 15 16 16 17 17 18 18 19 19 19 18 18 18 18 18 18 18 18 18 18 17 17
3 1 2 2 2 3 3 2 2 3 5 8 11 13 13 11 10 11 13 15 16 15 16 16 17 17 18 18 18 18 18 18 18 18 19 19 19 18 18 19 18 18 18 18
1 1 2 3 3 4 6 6 5 4 5 8 11 12 8 7 9 12 15 16 15 15 17 18 18 19 19 18 18 18 18 18 18 18 19 19 19 19 19 19 18 18 18 18
3 3 5 5 2 7 8 8 8 5 6 8 11 13 12 12 13 15 15 14 14 16 18 19 19 18 18 18 18 18 18 18 18 18 19 19 19 19 19 19 19 19 18 18
4 5 5 7 5 7 2 4 3 6 9 8 10 13 12 12 13 14 11 11 14 17 18 18 18 19 18 18 18 17 18 18 18 18 18 18 18 19 19 19 19 19 17 16
6 6 7 7 10 10 3 5 4 5 10 5 8 12 11 12 14 8 2 10 15 16 17 17 18 18 18 18 17 17 18 18 18 18 18 18 18 19 19 19 19 17 16 15
6 7 9 9 11 11 1 8 4 4 6 1 7 10 11 12 12 9 11 14 16 16 16 16 17 18 17 17 17 17 18 18 18 18 18 18 18 19 19 18 18 16 15 14
7 7 10 12 12 8 6 9 5 6 7 5 7 8 9 10 10 13 15 15 15 16 17 17 17 16 16 16 16 17 17 17 18 18 18 18 18 18 17 16 15 15 13 12
8 7 7 7 8 4 11 8 5 5 3 4 6 6 8 10 12 13 14 14 15 16 17 17 16 17 16 16 15 16 17 17 17 18 18 18 18 16 15 15 14 13 11 11
6 6 6 6 6 2 8 7 3 3 5 5 5 6 7 10 12 13 13 14 15 16 16 16 17 17 16 15 15 16 17 17 17 17 17 17 16 15 14 13 13 11 9 7
5 3 6 8 9 6 8 9 8 6 6 5 4 6 7 10 11 13 13 13 14 15 16 16 17 17 17 17 16 15 16 16 16 17 16 15 14 13 13 11 10 9 8 7
10 5 8 11 12 8 9 10 9 7 7 6 5 6 7 9 11 12 12 13 14 15 15 16 16 17 17 17 17 16 15 15 16 16 14 14 12 12 11 10 8 8 7 6
10 11 12 11 6 6 5 5 6 8 8 7 6 6 7 8 10 11 12 12 13 15 16 16 17 17 17 16 16 16 15 15 15 14 13 11 11 10 10 9 7 1 3 4
Wind_Direction
218 231 174 35 344 351 282 246 125 108 113 94 104 102 92 87 86 87 86 83 81 79 79 75 73 70 69 58 47 33 21 16 5 3 352 345 342 339 344 346 353 348 339 330
212 179 33 345 266 229 227 222 138 125 135 129 121 108 102 96 92 93 99 100 100 96 91 82 76 68 55 44 30 23 17 12 5 5 347 341 335 329 344 352 359 358 353 347
287 34 6 290 238 233 230 269 177 157 154 157 145 130 129 120 118 119 116 113 109 97 86 78 57 39 23 17 7 2 357 352 354 346 340 343 336 333 346 351 356 356 354 353
279 328 303 282 260 275 263 342 198 168 182 187 216 185 154 150 148 147 144 146 139 124 85 40 6 356 351 348 344 342 339 336 333 328 335 337 334 335 336 335 344 346 353 351
310 320 298 281 332 312 8 30 197 196 221 204 210 230 150 170 176 173 178 184 194 220 294 318 324 327 329 329 329 329 329 326 322 317 311 308 313 318 319 323 324 326 334 336
342 336 322 337 343 23 133 165 177 210 229 226 195 250 155 168 177 182 198 218 239 261 283 298 309 315 318 320 322 323 325 323 319 311 306 299 300 301 305 306 306 306 307 304
105 104 61 332 264 184 233 256 254 234 230 199 158 244 108 121 136 237 252 249 256 271 286 299 307 314 316 317 319 320 321 319 318 314 306 299 295 293 286 288 293 294 294 290
337 67 37 14 345 313 305 288 295 302 307 298 183 205 114 116 139 267 276 277 276 283 296 306 311 314 316 317 319 320 321 318 315 312 309 303 296 290 291 292 293 291 287 286
348 7 64 41 30 325 290 326 333 291 289 287 190 131 136 157 217 271 282 286 291 301 308 309 313 315 319 320 319 318 317 314 313 313 309 300 297 295 294 292 283 279 278 278
347 310 81 95 190 58 24 346 297 308 317 307 290 221 154 160 313 314 307 309 311 312 314 317 318 317 318 317 317 316 315 314 312 310 310 308 307 301 295 290 289 287 283 278
340 304 108 128 38 22 14 16 336 319 328 317 318 17 86 34 334 321 319 320 319 320 321 321 318 317 317 316 317 318 317 315 313 312 311 308 304 302 298 293 288 283 279 277
352 314 61 97 90 39 44 17 342 324 332 311 308 9 112 14 322 312 314 320 322 321 319 319 319 319 318 318 318 317 316 313 312 311 309 306 304 301 299 296 294 290 283 276
0 294 226 176 173 157 67 48 14 330 298 313 314 344 115 301 298 299 309 319 321 320 319 318 318 318 316 316 316 314 312 311 311 310 308 306 304 303 301 299 297 292 286 279
311 4 341 5 19 353 233 100 345 311 322 322 326 323 326 325 313 310 317 320 320 318 316 316 316 315 315 313 312 311 310 312 311 310 308 306 305 304 301 298 296 292 287 281
282 49 25 12 342 279 271 253 278 321 334 321 327 320 327 337 327 319 316 318 317 316 316 317 316 315 314 313 312 311 311 311 311 309 307 306 305 304 301 298 295 292 288 282
291 287 264 243 237 268 263 245 243 267 298 313 314 324 348 325 310 312 319 320 318 318 318 318 317 316 315 314 312 312 310 311 311 308 306 306 305 304 303 301 298 294 290 285
222 248 280 291 248 275 264 233 232 259 300 309 315 328 330 314 316 318 319 318 319 319 318 317 316 315 314 312 312 310 310 310 307 305 304 305 305 304 303 301 298 294 291 287
237 254 273 292 279 278 33 122 214 271 295 299 302 316 322 316 315 304 300 311 318 318 317 316 315 315 313 314 314 312 310 308 306 305 305 306 306 305 302 300 298 295 293 288
233 241 274 283 286 291 174 179 212 278 301 305 313 318 318 321 309 310 7 320 316 316 315 314 313 313 314 314 315 313 310 309 308 307 308 309 307 304 302 300 298 297 293 288
200 227 256 270 288 295 334 140 151 271 282 8 315 313 318 320 316 339 345 325 320 318 317 316 314 313 314 318 317 312 310 311 310 310 311 308 304 302 302 301 300 298 293 286
222 228 249 269 277 284 126 144 178 279 343 354 318 313 314 318 312 316 321 320 319 317 317 316 315 314 317 318 316 312 310 310 312 311 309 306 304 304 303 303 301 299 296 290
268 267 257 270 275 288 140 164 238 317 344 311 309 308 311 310 310 313 316 317 318 319 320 321 318 316 318 320 319 314 311 313 313 311 309 307 307 308 308 307 306 305 301 295
250 284 291 271 290 73 183 210 239 281 284 295 298 308 311 309 312 316 318 319 320 321 322 321 319 317 318 323 322 315 314 315 314 312 311 310 310 312 312 312 312 311 305 296
235 213 259 265 273 252 224 229 240 246 262 276 282 299 307 309 314 318 320 320 321 322 323 323 321 319 320 324 323 318 316 316 315 314 313 313 314 316 318 317 317 318 317 310
289 238 256 263 275 268 237 229 234 233 236 246 259 285 302 308 312 319 318 320 322 322 324 323 320 319 321 324 321 321 321 321 318 316 315 316 318 319 317 320 326 328 335 338
261 249 253 271 280 247 238 199 211 219 226 236 256 281 295 304 311 315 317 319 319 321 322 322 322 323 323 323 320 322 325 322 318 317 318 319 319 320 322 328 333 7 327 356
Height
1505 1500 1497 1497 1495 1497 1497 1498 1502 1511 1515 1515 1521 1526 1530 1532 1532 1533 1533 1533 1533 1532 1532 1531 1530 1530 1529 1527 1526 1524 1522 1520 1518 1515 1513 1510 1508 1505 1501 1497 1493 1491 1488 1486
1501 1499 1499 1498 1498 1498 1498 1499 1504 1513 1516 1517 1522 1527 1529 1531 1533 1533 1534 1534 1534 1533 1533 1533 1532 1531 1530 1528 1526 1524 1522 1520 1517 1515 1512 1509 1506 1504 1501 1497 1493 1491 1488 1487
1500 1499 1499 1498 1497 1497 1496 1496 1500 1508 1515 1515 1518 1526 1527 1530 1532 1534 1534 1534 1534 1534 1534 1533 1532 1531 1530 1528 1526 1524 1521 1518 1516 1514 1512 1509 1506 1503 1500 1496 1493 1490 1488 1486
1498 1498 1499 1498 1496 1495 1498 1493 1497 1505 1512 1510 1512 1522 1524 1525 1528 1531 1532 1533 1534 1534 1533 1533 1532 1531 1529 1527 1525 1522 1519 1517 1515 1512 1510 1508 1505 1502 1499 1495 1492 1489 1487 1485
1499 1499 1499 1498 1497 1496 1497 1496 1497 1501 1503 1506 1509 1512 1521 1522 1524 1526 1529 1531 1532 1533 1532 1532 1531 1529 1528 1526 1523 1521 1517 1515 1512 1510 1507 1505 1503 1500 1498 1494 1491 1488 1485 1483
1499 1500 1499 1497 1497 1497 1498 1498 1499 1498 1497 1511 1508 1510 1522 1518 1521 1523 1527 1529 1531 1531 1531 1530 1529 1527 1525 1523 1520 1518 1515 1511 1509 1506 1504 1501 1499 1496 1494 1491 1489 1487 1484 1482
1501 1498 1498 1498 1495 1496 1496 1501 1508 1511 1510 1511 1505 1508 1520 1518 1522 1524 1525 1527 1529 1529 1529 1528 1526 1525 1522 1520 1517 1514 1511 1508 1505 1502 1500 1497 1495 1492 1489 1488 1486 1484 1482 1480
1506 1506 1500 1499 1499 1498 1497 1498 1510 1519 1514 1507 1506 1511 1519 1521 1524 1525 1526 1526 1527 1527 1526 1525 1524 1522 1519 1516 1513 1510 1507 1504 1501 1498 1495 1492 1489 1488 1485 1483 1481 1479 1477 1476
1506 1507 1501 1502 1500 1498 1497 1496 1495 1501 1502 1508 1506 1513 1521 1523 1523 1524 1524 1524 1525 1525 1524 1523 1521 1518 1516 1512 1509 1506 1503 1499 1496 1493 1489 1486 1484 1481 1479 1477 1475 1473 1472 1470
1504 1509 1501 1502 1498 1502 1499 1499 1498 1502 1516 1517 1508 1508 1514 1518 1519 1520 1521 1522 1523 1523 1522 1520 1517 1515 1512 1509 1505 1502 1498 1494 1490 1487 1483 1481 1477 1475 1472 1470 1468 1466 1464 1463
1503 1508 1505 1502 1507 1506 1502 1503 1503 1502 1507 1518 1518 1513 1512 1516 1519 1520 1520 1521 1521 1521 1519 1517 1514 1511 1508 1504 1500 1496 1492 1488 1484 1481 1477 1473 1470 1467 1464 1462 1460 1458 1456 1455
1507 1504 1508 1509 1508 1506 1505 1507 1506 1512 1515 1512 1513 1513 1514 1516 1518 1520 1520 1520 1520 1518 1516 1513 1510 1507 1503 1499 1495 1491 1487 1483 1479 1474 1470 1466 1462 1459 1456 1454 1451 1449 1447 1446
1509 1510 1515 1514 1513 1508 1508 1509 1508 1509 1511 1511 1515 1513 1514 1515 1517 1518 1518 1518 1517 1515 1513 1510 1507 1503 1499 1495 1491 1486 1482 1477 1473 1468 1464 1459 1456 1452 1448 1445 1443 1440 1438 1436
1511 1510 1513 1516 1513 1509 1511 1512 1510 1509 1510 1514 1513 1513 1507 1509 1512 1514 1516 1516 1514 1512 1509 1506 1503 1499 1495 1491 1486 1481 1476 1472 1467 1462 1457 1453 1449 1445 1441 1438 1435 1432 1429 1427
1510 1510 1511 1510 1510 1509 1510 1512 1513 1513 1515 1515 1514 1512 1508 1510 1513 1515 1515 1513 1511 1509 1506 1503 1499 1495 1490 1486 1481 1476 1471 1466 1461 1456 1451 1447 1443 1439 1434 1431 1427 1424 1421 1418
1511 1511 1512 1513 1511 1511 1512 1512 1514 1514 1514 1513 1512 1509 1508 1513 1514 1513 1512 1511 1508 1506 1502 1499 1495 1490 1486 1481 1476 1470 1465 1460 1455 1451 1446 1441 1436 1432 1428 1423 1419 1416 1412 1409
1508 1512 1515 1510 1510 1512 1513 1507 1510 1511 1510 1512 1511 1510 1509 1510 1511 1511 1510 1508 1506 1503 1499 1495 1491 1486 1481 1476 1471 1465 1460 1455 1450 1445 1440 1435 1430 1426 1421 1416 1412 1407 1404 1401
1511 1512 1511 1508 1515 1523 1508 1504 1507 1510 1509 1507 1508 1508 1509 1510 1510 1509 1507 1506 1504 1500 1496 1491 1487 1482 1477 1472 1466 1461 1455 1450 1445 1440 1435 1430 1425 1419 1414 1409 1404 1399 1395 1392
1510 1511 1509 1509 1508 1504 1503 1506 1508 1510 1507 1505 1507 1508 1508 1507 1507 1501 1504 1504 1501 1497 1492 1488 1483 1478 1472 1467 1462 1456 1450 1446 1440 1435 1430 1424 1418 1412 1407 1401 1396 1391 1387 1383
1510 1510 1508 1507 1515 1514 1499 1503 1508 1510 1506 1505 1507 1507 1506 1506 1501 1499 1502 1500 1497 1493 1488 1483 1478 1473 1468 1463 1457 1451 1446 1441 1435 1430 1424 1418 1412 1406 1400 1395 1389 1384 1380 1376
1505 1506 1505 1503 1505 1495 1497 1503 1508 1509 1505 1505 1505 1506 1506 1504 1504 1502 1499 1496 1493 1489 1484 1479 1474 1469 1464 1459 1453 1447 1441 1436 1430 1424 1418 1412 1406 1400 1395 1389 1383 1378 1374 1370
1499 1498 1501 1502 1505 1500 1499 1502 1502 1502 1503 1504 1504 1504 1504 1503 1502 1499 1497 1493 1489 1485 1480 1476 1470 1465 1460 1455 1449 1443 1437 1431 1425 1419 1413 1406 1401 1395 1390 1384 1378 1373 1369 1365
1496 1493 1491 1494 1495 1496 1497 1497 1499 1500 1501 1502 1502 1502 1502 1500 1499 1496 1493 1490 1486 1482 1477 1472 1467 1461 1456 1451 1445 1439 1432 1426 1420 1414 1408 1402 1396 1391 1385 1380 1374 1369 1365 1362
1490 1497 1495 1494 1488 1492 1494 1495 1497 1498 1498 1499 1499 1499 1499 1497 1495 1493 1490 1486 1483 1478 1473 1468 1463 1457 1452 1447 1441 1435 1428 1422 1416 1410 1404 1398 1393 1388 1382 1377 1372 1367 1363 1360
1489 1492 1491 1491 1488 1489 1490 1492 1493 1494 1495 1496 1496 1496 1496 1494 1492 1490 1487 1483 1479 1475 1470 1465 1460 1454 1449 1443 1437 1431 1425 1418 1412 1406 1401 1395 1390 1385 1380 1375 1370 1366 1362 1358
1484 1485 1487 1484 1483 1486 1486 1488 1489 1491 1492 1492 1493 1493 1492 1491 1489 1487 1484 1480 1476 1472 1467 1462 1456 1451 1445 1439 1433 1427 1421 1415 1409 1403 1398 1393 1388 1383 1378 1374 1369 1365 1361 1357